Regional Weather Roundup
Issued by NWS Wakefield, VA

Home | Current Version | Previous Version | Graphics & Text | Print | Product List | Glossary On
Versions: 1 2 3 4 5 6 7 8 9 10 11 12 13 14 15 16 17 18 19 20 21 22 23 24 25 26 27 28 29 30 31 32 33 34 35 36 37 38 39 40 41 42 43 44 45 46 47 48 49 50
000
ASUS41 KAKQ 181515
RWRAKQ

REGIONAL WEATHER ROUNDUP
NATIONAL WEATHER SERVICE WAKEFIELD VA
1000 AM EST WED JAN 18 2017

Note: "fair" indicates few or no clouds below 12,000 feet with no
significant weather and/or obstructions to visibility. * = Denotes
station may not report precipitation (e.g., rain,snow,etc.),
thunder or fog.

VAZ042-051-052>054-056-181600-
NORTHERN VIRGINIA

CITY           SKY/WX    TMP DP  RH WIND       PRES   REMARKS
WASH NATIONAL  CLOUDY    53  45  74 NW13      29.96R
DULLES         CLOUDY    53  42  66 NW12      29.97R
FORT BELVOIR   MOSUNNY   54  41  62 NW12G25   29.93R
QUANTICO       CLOUDY    51  43  74 N21G28    29.95R
FREDERICKSBRG*   N/A    N/A N/A N/A MISG        N/A
STAFFORD*      MOSUNNY   53  46  77 NW15      29.98S
WARRENTON      CLOUDY    56  42  61 NW14G23   29.95S
CULPEPER*      MOSUNNY   53  48  82 N10G18    29.98R
MANASSAS*      PTSUNNY  N/A N/A N/A N17G29    29.97
LEESBURG*      MOSUNNY   54  48  82 NW8       29.98S
WINCHESTER     CLOUDY    46  39  76 NW12      29.99R
FRONT ROYAL*   CLOUDY    43  43 100 CALM      29.99R
LURAY*         FAIR      52  43  71 NW3       30.00R
$$

VAZ048-049-060>072-079>083-181600-
CENTRAL AND SOUTH CENTRAL VIRGINIA

CITY           SKY/WX    TMP DP  RH WIND       PRES   REMARKS
RICHMOND       CLOUDY    58  55  90 N7        29.94R
CHESTERFIELD*  FAIR      61  43  51 N7        29.96R
PETERSBURG*    PTSUNNY   61  46  59 W12       29.94R
HANOVER        CLOUDY    56  47  71 VRB3      29.97R
TAPPAHANNOCK*  CLOUDY    56  43  61 N10G20    29.95R
QUINTON*       FAIR      59  57  93 N5        29.93R
CHARLOTTSVILLE MOSUNNY   59  46  62 NW10      29.97R
GORDONSVILLE*  CLOUDY    51  50  96 W5        29.97R
ORANGE*          N/A     52  52 100 NW3       29.98R
LOUISA*        CLOUDY    55  54  94 N3        29.95R
BUMPASS*       CLOUDY    54  49  83 N5        29.96R
FARMVILLE*     MOSUNNY   63  46  54 W6        29.96R
CREWE*         FAIR      62  46  56 NW12G21   29.95R
FORT PICKETT*  FAIR      62  40  45 W14G21    29.96R
CHASE CITY*    FAIR      61  44  54 W9G17     29.98R
CLARKSVILLE*   FAIR      61  50  67 W7        29.98R
SOUTH HILL*    SUNNY     61  52  71 W5G20     30.02R
LAWRENCEVILLE* FAIR      62  50  65 MISG      29.95R
EMPORIA*       SUNNY     61  52  72 W8        29.96R
$$

VAZ088>098-181600-
SOUTHEAST VIRGINIA

CITY           SKY/WX    TMP DP  RH WIND       PRES   REMARKS
NORFOLK        CLOUDY    54  51  90 N7        29.92R FOG
VIRGINIA BEACH CLOUDY    58  53  84 N13       29.91R
NORFOLK NAVAL  CLOUDY    55  51  86 NE8       29.94R FOG
WEST POINT*    PTSUNNY   57  55  92 N8        29.95R
SALUDA*        CLOUDY    55  52  89 N5        29.93R
NEWPORT NEWS   CLOUDY    60  56  86 N7        29.92R
LANGLEY AFB    PTSUNNY   54  54  99 NE5       29.92R
FORT EUSTIS    PTSUNNY   59  55  88 N5        29.90R
WILLIAMSBURG*  MOSUNNY   61  57  88 N7        29.94R
HR EXEC AP*    FAIR      64  55  72 W10       29.88S
FRANKLIN*      PTSUNNY   63  53  70 W12       29.93R
US460-WAKEFLD  SUNNY     64  55  72 W8        29.93R
$$

VAZ020-022-025-037-045-181600-
WEST CENTRAL AND SOUTHWEST VIRGINIA

CITY           SKY/WX    TMP DP  RH WIND       PRES   REMARKS
STAUNTON*      CLOUDY    52  37  56 NW17      30.02R
WAYNESBORO*    PTSUNNY   53  36  53 W6G18     29.98R
HOT SPRINGS VA CLOUDY    39  36  87 NW17G28   29.99R
LYNCHBURG      SUNNY     57  40  52 NW7G18    30.02R
DANVILLE       SUNNY     61  48  62 W7        30.01R
SOUTH BOSTON*  FAIR      62  45  54 NW12G18   30.00R
MARTINSVILLE   MOSUNNY   56  42  58 N8        30.05R
ROANOKE        MOSUNNY   56  37  49 NW20G26   30.05R
BLACKSBURG     MOSUNNY   50  39  64 W13G26    30.08R
DUBLIN*        MOSUNNY   51  38  59 NW18G29   30.07R
MARION*        PTSUNNY   50  40  68 W22G29    30.10R
HILLSVILLE*    SUNNY     49  39  68 W24G30    30.03R
RICHLANDS*     CLOUDY   N/A N/A N/A NW9       30.13R
WISE*          MOSUNNY   45  34  65 NW12G17   30.17R
ABINGDON*      CLOUDY    51  45  78 W15       30.15R
$$

MDZ021>025-VAZ099-100-181600-
SOUTHERN MARYLAND AND THE DELMARVA PENINSULA

CITY           SKY/WX    TMP DP  RH WIND       PRES   REMARKS
PATUXENT RIVER FOG       45  45 100 NW5       29.94R VSB 1/4
BAY BRIDGE APT CLOUDY    43  43 100 CALM      29.94R FOG
LEONARDTOWN    CLOUDY    45  45 100 CALM      29.96R
DOVER          CLOUDY    45  45 100 NW9       29.88R FOG
GEORGETOWN     CLOUDY    49  45  86 VRB5      29.92R
EASTON         PTSUNNY   46  46 100 N6        29.97R
CAMBRIDGE      CLOUDY    45  45 100 NW5       29.94R VSB 3/4
SALISBURY      CLOUDY    53  48  83 N9        29.91R
OCEAN CITY     PTSUNNY   53  50  89 N7        29.91R
WALLOPS ISLAND PTSUNNY   57  52  83 N10       29.91R
ACCOMACK*      CLOUDY    55  51  86 N10       29.91R
$$

NCZ012>017-030>032-181600-
NORTH CENTRAL AND EASTERN NORTH CAROLINA

CITY           SKY/WX    TMP DP  RH WIND       PRES   REMARKS
ROANOKE RAPIDS FAIR      63  54  72 W7        29.96S
RALEIGH        MOSUNNY   65  55  70 W9G17     29.99R
ELIZABETH CITY PTSUNNY   61  58  90 W9        29.91S
AHOSKIE*         N/A     61  57  86 CALM      29.95R
EDENTON*       PTSUNNY   62  58  87 W6        29.94R
CURRITUCK*     PTSUNNY   61  60  96 W8        29.92R
KILL DEVIL HLS NOT AVBL
MANTEO         RAIN      56  56 100 W5        29.92R
CAPE HATTERAS  CLOUDY    61  56  83 SW14G21   29.94F HAZE
TARBORO*       NOT AVBL
GOLDSBORO      PTSUNNY   62  62 100 W10       29.96R
WASHINGTON     LGT RAIN  61  58  91 SW9       29.95S
GREENVILLE     CLOUDY    63  61  94 SW8       29.98R
NEW BERN       LGT RAIN  63  58  83 W13       29.98R
WILMINGTON     CLOUDY    67  60  78 W12       30.00R
$$

VAZ048-181600-
ELSEWHERE

CITY           SKY/WX    TMP DP  RH WIND       PRES   REMARKS
HARRISBURG PA  LGT RAIN  41  41 100 NW3       29.96R FOG
BALTIMORE      CLOUDY    50  47  89 NW12      29.94R
ANNAPOLIS      CLOUDY    47  44  90 NW8       29.94R FOG
ANDREWS AFB    CLOUDY    51  50  95 NW18G25   29.93R
PHILADELPHIA   CLOUDY    43  40  89 N8        29.94R
HENDERSON NC   MOSUNNY   60  47  61 NW15G21   29.99R
GREENSBORO     MOSUNNY   63  47  55 NW14      30.01R
ROCKY MOUNT    CLOUDY    63  58  83 W7        29.97R
$$

VAZ100-181600-
MARINE

STATION/POSITION TIME  TEMP    WIND        PRES    WAVE   SWELL
                       AIR SEA DIR/SP/G            HT/PER HT/PER
                 (UTC) (F)     (DEG/KT/KT) (MB)    (FT/S) (FT/S)
CAPE MAY NJ      1442   40 41  330/  3/  5 1012.8R
LEWES DE         1442   41 41  360/  9/ 10 1013.3R
OCEAN-CITY-INLET 1442   50 43  360/ 10/ 11 1012.7R
WACHAPREAGUE VA  1442   57 48  330/  5/  8 1012.5R
THOMAS POINT MD  1500   42 39   10/  1/  2   N/A
GOOSES REEF MD   1500   41      10/  2/  4 1014.7    0
COVE POINT MD    1448   40     360/ 11/ 12 1014.6R
SOLOMONS ISLAND  1442   45 41  320/  4/  6   N/A
BISHOPS HEAD MD  1448   47 42  330/  6/  8 1013.7R
PINEY POINT MD   1442          350/  7/  8   N/A
POTOMAC MD       1500   44 41   10/  4/  6 1013.1    0
CAMBRIDGE MD     1442   45 39  270/  5/  7 1012.8R
LEWISETTA VA     1442   49 44   10/  5/  7 1013.6R
RAPPAHANNOCK LGT 1442          320/  6/  7 1013.5R
STINGRAY PT      1450   44      20/  4/  6 1013.7R
YORK RVR RNG VA  1448           20/  7/  8   N/A
YORKTOWN VA      1442   57 44  300/  5/  6 1012.6R
JAMESTOWN VA     1500   50 44  290/  6/  8   N/A     0
DOMINION TERM VA 1442   58     350/  3/  4 1012.6R
KIPTOPEKE VA     1442      43   20/ 10/ 13   N/A
CHES BAY BRIDGE  1442   49 42   20/ 11/ 13 1012.8R
CAPE HENRY VA    1442   51     350/  9/ 12   N/A
WILLOUBY STN VA  1442   50      50/ 12/ 13 1013.7R
S CRANEY ISL VA  1442   61     290/  6/ 10 1012.3R
CAPE HENRY BUOY  1442      45                N/A     2/ 4
OFFSHORE WE BUOY 1451      49                N/A     2/ 5
64NM E OF VA BCH 1450   57 57  240/ 14/ 16 1011.9R   4/ 5   2/ 8
DUCK PIER NC     1448          250/ 13/ 16   N/A
44100 DUCK FRF   1435      46                N/A     2/ 6
44056 DUCK FRF   1430      45                N/A     1/ 6
OREGON INLET NC  1442   52 51  220/ 10/ 10 1013.2F
HATTERAS NC      1442   60 54  230/ 12/ 16 1013.5F
DIAMOND SHLS NC  1450   68 71  260/ 25/ 31 1013.6R   9/ 7   2/13
CAPE LOOKOUT NC  1400   62     240/ 14/ 17 1014.7R
$$



USA.gov is the U.S. government's official web portal to all federal, state and local government web resources and services.